Location: �clusier
(49.9361°N, 2.7869°E)
Time: 07:04:26
(UTC+00:00)

Cosmos 1943 Rocket - Pass Details

Date: 16 June 2021
Orbit: 813 x 843 km, 71.0° (Epoch: 01 August)

Event Time Altitude Azimuth Distance (km) Brightness Sun altitude
Rises 22:50:44 0° 334° (NNW) 3,349 7.0 -15.5°
Reaches altitude 10° 22:53:33 10° 346° (NNW) 2,413 6.0 -15.6°
Maximum altitude 22:58:13 27° 44° (NE) 1,514 3.9 -15.8°
Drops below altitude 10° 23:02:52 10° 102° (ESE) 2,407 4.3 -15.9°
Enters shadow 23:04:37 - 111° (ESE) 2,981 4.7 -16.0°
